Location: Bli��� Lhota
(48.7570°N, 14.0120°E)
Time: 04:19:28
(UTC+00:00)

Cosmos 1300 Rocket - Pass Details

Date: 18 September 2020
Orbit: 601 x 627 km, 82.5° (Epoch: 29 October)

Event Time Altitude Azimuth Distance (km) Brightness Sun altitude
Rises 18:16:37 0° 172° (S) 2,876 6.7 -11.7°
Reaches altitude 10° 18:18:52 10° 166° (SSE) 1,980 5.9 -12.1°
Maximum altitude 18:23:04 47° 94° (E) 831 3.8 -12.7°
Drops below altitude 10° 18:27:20 10° 20° (NNE) 2,009 6.2 -13.4°
Sets 18:29:39 0° 15° (NNE) 2,923 7.1 -13.8°
